Location: Lourdes
(43.1000°N, 0.0500°W)
Time: 04:37:56
(UTC+00:00)

H-2A R/B - Pass Details

Date: 30 November 2020
Orbit: 734 x 836 km, 98.2° (Epoch: 24 January)

Event Time Altitude Azimuth Distance (km) Brightness Sun altitude
Rises 19:38:40 0° 189° (S) 3,327 5.4 -34.4°
Enters shadow 19:40:01 - 193° (SSW) 2,823 5.0 -34.7°
Exits shadow 19:47:17 31° 292° (WNW) 1,366 3.7 -36.0°
Drops below altitude 10° 19:50:45 10° 329° (NNW) 2,340 4.8 -36.6°
Sets 19:53:14 0° 338° (NNW) 3,255 5.5 -37.1°
